2019 YJ6

Japanese version
Home page
Updated on January 7, 2020

---------------------------------------------------------------------

* Profile

Discovery Date December 30, 2019
Magnitude 21.58 mag
Discoverer Pan-STARRS 1 telescope (Haleakala)

* Orbital Elements

Epoch 2020 May 31.0 TT = JDT 2459000.5                  Veres
M 359.96643              (2000.0)            P               Q
n   0.00424626     Peri.  163.48896     -0.86049827     -0.50050205
a  37.7686469      Node   345.29787     +0.41474009     -0.57982747
e   0.9321393      Incl.   22.00202     +0.29586041     -0.64288242
P 232              H   17.1           G   0.15           U   2

* Magnitudes Graph

        H = 17.1  G = 0.15

---------------------------------------------------------------------

The orbital elements are published on M.P.E.C. 2020-A34.
The magnitudes graphs are made with Comet for Windows.

---------------------------------------------------------------------

Copyright(C) Seiichi Yoshida (comet@aerith.net). All rights reserved.